| time (UTC) | temp F | wind direction | speed MPH | gust MPH | rain 1hr in | rain 24hr in | rain mn in | humidity % | barometer mb |
| 20260505230203 | 78 | 187 | 2.0 | 10.0 | 0.00 | 0.00 | 0.00 | 40 | 1036.1 |
| 20260505225655 | 78 | 219 | 2.0 | 10.0 | 0.00 | 0.00 | 0.00 | 39 | 1036.1 |
| 20260505225151 | 78 | 242 | 2.0 | 6.0 | 0.00 | 0.00 | 0.00 | 40 | 1036.1 |
| 20260505224644 | 78 | 216 | 3.0 | 10.0 | 0.00 | 0.00 | 0.00 | 40 | 1036.2 |
| 20260505224139 | 78 | 190 | 3.0 | 10.0 | 0.00 | 0.00 | 0.00 | 39 | 1036.2 |
| 20260505223631 | 78 | 236 | 3.0 | 8.0 | 0.00 | 0.00 | 0.00 | 39 | 1036.2 |
| 20260505223120 | 79 | 229 | 3.0 | 14.0 | 0.00 | 0.00 | 0.00 | 39 | 1036.4 |
| 20260505222620 | 79 | 269 | 3.0 | 14.0 | 0.00 | 0.00 | 0.00 | 39 | 1036.4 |
| 20260505222113 | 79 | 169 | 3.0 | 12.0 | 0.00 | 0.00 | 0.00 | 39 | 1036.2 |
| 20260505221607 | 80 | 154 | 3.0 | 12.0 | 0.00 | 0.00 | 0.00 | 39 | 1036.2 |
| 20260505221102 | 80 | 256 | 3.0 | 10.0 | 0.00 | 0.00 | 0.00 | 37 | 1036.2 |
| 20260505220555 | 80 | 267 | 4.0 | 12.0 | 0.00 | 0.00 | 0.00 | 38 | 1036.1 |
| 20260505220049 | 80 | 155 | 4.0 | 15.0 | 0.00 | 0.00 | 0.00 | 38 | 1036.1 |
| 20260505215800 | 80 | 224 | 3.0 | 15.0 | 0.00 | 0.00 | 0.00 | 38 | 1036.1 |
| 20260505215038 | 80 | 115 | 4.0 | 10.0 | 0.00 | 0.00 | 0.00 | 38 | 1036.1 |
| 20260505214527 | 80 | 238 | 3.0 | 11.0 | 0.00 | 0.00 | 0.00 | 38 | 1036.1 |
| 20260505214026 | 80 | 180 | 4.0 | 11.0 | 0.00 | 0.00 | 0.00 | 38 | 1036.1 |
| 20260505213519 | 80 | 241 | 5.0 | 21.0 | 0.00 | 0.00 | 0.00 | 37 | 1036.1 |
| 20260505213013 | 81 | 113 | 4.0 | 21.0 | 0.00 | 0.00 | 0.00 | 37 | 1036.1 |
| 20260505212507 | 81 | 239 | 4.0 | 14.0 | 0.00 | 0.00 | 0.00 | 38 | 1036.1 |
| 20260505211956 | 81 | 204 | 3.0 | 11.0 | 0.00 | 0.00 | 0.00 | 38 | 1036.0 |
| 20260505211457 | 81 | 202 | 4.0 | 11.0 | 0.00 | 0.00 | 0.00 | 37 | 1036.0 |
| 20260505211211 | 81 | 165 | 5.0 | 11.0 | 0.00 | 0.00 | 0.00 | 37 | 1036.0 |
| 20260505210445 | 81 | 213 | 5.0 | 11.0 | 0.00 | 0.00 | 0.00 | 39 | 1036.0 |
| 20260505205937 | 81 | 188 | 5.0 | 14.0 | 0.00 | 0.00 | 0.00 | 38 | 1036.0 |
| 20260505205432 | 81 | 205 | 5.0 | 15.0 | 0.00 | 0.00 | 0.00 | 38 | 1036.0 |
| 20260505204925 | 81 | 275 | 4.0 | 15.0 | 0.00 | 0.00 | 0.00 | 38 | 1036.0 |
| 20260505204415 | 81 | 320 | 4.0 | 13.0 | 0.00 | 0.00 | 0.00 | 39 | 1036.0 |
| 20260505203915 | 81 | 180 | 4.0 | 13.0 | 0.00 | 0.00 | 0.00 | 38 | 1036.0 |
| 20260505203415 | 81 | 300 | 4.0 | 13.0 | 0.00 | 0.00 | 0.00 | 38 | 1036.0 |
| 20260505202915 | 81 | 278 | 5.0 | 16.0 | 0.00 | 0.00 | 0.00 | 38 | 1036.0 |
| 20260505202419 | 81 | 213 | 6.0 | 16.0 | 0.00 | 0.00 | 0.00 | 38 | 1036.0 |
| 20260505201914 | 82 | 153 | 4.0 | 10.0 | 0.00 | 0.00 | 0.00 | 38 | 1036.1 |
| 20260505201414 | 82 | 134 | 4.0 | 15.0 | 0.00 | 0.00 | 0.00 | 38 | 1036.1 |
| 20260505200914 | 82 | 296 | 5.0 | 15.0 | 0.00 | 0.00 | 0.00 | 37 | 1036.1 |
| 20260505200416 | 82 | 255 | 5.0 | 12.0 | 0.00 | 0.00 | 0.00 | 38 | 1036.1 |
| 20260505200401 | 82 | 223 | 5.0 | 12.0 | 0.00 | 0.00 | 0.00 | 36 | 1036.1 |
| 20260505195633 | 83 | 296 | 4.0 | 15.0 | 0.00 | 0.00 | 0.00 | 39 | 1036.1 |
| 20260505194914 | 83 | 157 | 4.0 | 15.0 | 0.00 | 0.00 | 0.00 | 37 | 1036.4 |
| 20260505194413 | 83 | 155 | 4.0 | 14.0 | 0.00 | 0.00 | 0.00 | 37 | 1036.4 |
| 20260505193906 | 83 | 169 | 4.0 | 14.0 | 0.00 | 0.00 | 0.00 | 39 | 1036.4 |
| 20260505193402 | 83 | 279 | 5.0 | 14.0 | 0.00 | 0.00 | 0.00 | 40 | 1036.4 |
| 20260505192854 | 83 | 155 | 6.0 | 14.0 | 0.00 | 0.00 | 0.00 | 39 | 1036.4 |
| 20260505192348 | 83 | 158 | 6.0 | 14.0 | 0.00 | 0.00 | 0.00 | 38 | 1036.4 |
| 20260505191843 | 83 | 281 | 7.0 | 14.0 | 0.00 | 0.00 | 0.00 | 40 | 1036.6 |
| 20260505191336 | 83 | 209 | 6.0 | 14.0 | 0.00 | 0.00 | 0.00 | 39 | 1036.6 |
| 20260505190826 | 83 | 123 | 5.0 | 13.0 | 0.00 | 0.00 | 0.00 | 40 | 1036.6 |
| 20260505190324 | 83 | 236 | 5.0 | 13.0 | 0.00 | 0.00 | 0.00 | 39 | 1036.9 |
| 20260505185814 | 83 | 246 | 5.0 | 13.0 | 0.00 | 0.00 | 0.00 | 40 | 1036.9 |
| 20260505185312 | 82 | 164 | 5.0 | 13.0 | 0.00 | 0.00 | 0.00 | 42 | 1036.9 |
| 20260505184807 | 82 | 184 | 5.0 | 12.0 | 0.00 | 0.00 | 0.00 | 40 | 1037.0 |
| 20260505184515 | 83 | 144 | 5.0 | 11.0 | 0.00 | 0.00 | 0.00 | 42 | 1037.0 |
| 20260505183754 | 82 | 142 | 4.0 | 10.0 | 0.00 | 0.00 | 0.00 | 42 | 1037.0 |
| 20260505183516 | 82 | 157 | 4.0 | 14.0 | 0.00 | 0.00 | 0.00 | 43 | 1037.3 |
| 20260505182744 | 82 | 172 | 5.0 | 14.0 | 0.00 | 0.00 | 0.00 | 40 | 1037.3 |
| 20260505182236 | 82 | 253 | 4.0 | 13.0 | 0.00 | 0.00 | 0.00 | 42 | 1037.3 |
| 20260505182206 | 82 | 246 | 4.0 | 13.0 | 0.00 | 0.00 | 0.00 | 43 | 1037.5 |
| 20260505181224 | 82 | 216 | 4.0 | 11.0 | 0.00 | 0.00 | 0.00 | 44 | 1037.5 |
| 20260505180713 | 82 | 340 | 3.0 | 8.0 | 0.00 | 0.00 | 0.00 | 44 | 1037.5 |
| 20260505180212 | 82 | 263 | 4.0 | 10.0 | 0.00 | 0.00 | 0.00 | 45 | 1037.5 |
| 20260505175706 | 82 | 141 | 5.0 | 19.0 | 0.00 | 0.00 | 0.00 | 42 | 1037.5 |
| 20260505175200 | 82 | 248 | 4.0 | 19.0 | 0.00 | 0.00 | 0.00 | 43 | 1037.5 |
| 20260505174654 | 82 | 205 | 3.0 | 10.0 | 0.00 | 0.00 | 0.00 | 43 | 1037.7 |
| 20260505174149 | 81 | 249 | 4.0 | 15.0 | 0.00 | 0.00 | 0.00 | 44 | 1037.7 |
| 20260505173642 | 81 | 248 | 4.0 | 15.0 | 0.00 | 0.00 | 0.00 | 44 | 1037.7 |
| 20260505173132 | 81 | 246 | 4.0 | 16.0 | 0.00 | 0.00 | 0.00 | 45 | 1037.9 |
| 20260505172630 | 81 | 244 | 4.0 | 16.0 | 0.00 | 0.00 | 0.00 | 45 | 1037.9 |
| 20260505172120 | 81 | 207 | 3.0 | 12.0 | 0.00 | 0.00 | 0.00 | 45 | 1038.1 |
| 20260505171613 | 80 | 202 | 4.0 | 12.0 | 0.00 | 0.00 | 0.00 | 45 | 1038.1 |
| 20260505171112 | 80 | 149 | 3.0 | 10.0 | 0.00 | 0.00 | 0.00 | 44 | 1038.1 |
| 20260505170606 | 80 | 196 | 4.0 | 12.0 | 0.00 | 0.00 | 0.00 | 45 | 1038.2 |
| 20260505170100 | 80 | 153 | 4.0 | 12.0 | 0.00 | 0.00 | 0.00 | 46 | 1038.2 |
| 20260505165550 | 80 | 227 | 4.0 | 14.0 | 0.00 | 0.00 | 0.00 | 45 | 1038.2 |
| 20260505165049 | 80 | 207 | 5.0 | 16.0 | 0.00 | 0.00 | 0.00 | 46 | 1038.5 |
| 20260505164542 | 80 | 273 | 5.0 | 11.0 | 0.00 | 0.00 | 0.00 | 47 | 1038.5 |
| 20260505164037 | 80 | 225 | 5.0 | 11.0 | 0.00 | 0.00 | 0.00 | 46 | 1038.5 |
| 20260505163530 | 80 | 130 | 4.0 | 11.0 | 0.00 | 0.00 | 0.00 | 47 | 1038.5 |
| 20260505163025 | 80 | 126 | 4.0 | 11.0 | 0.00 | 0.00 | 0.00 | 48 | 1038.5 |
| 20260505162734 | 80 | 186 | 5.0 | 15.0 | 0.00 | 0.00 | 0.00 | 47 | 1038.5 |
| 20260505162008 | 80 | 193 | 5.0 | 15.0 | 0.00 | 0.00 | 0.00 | 45 | 1038.6 |
| 20260505161506 | 79 | 169 | 5.0 | 15.0 | 0.00 | 0.00 | 0.00 | 48 | 1038.6 |
| 20260505161000 | 79 | 248 | 4.0 | 11.0 | 0.00 | 0.00 | 0.00 | 50 | 1038.6 |
| 20260505160719 | 79 | 129 | 4.0 | 13.0 | 0.00 | 0.00 | 0.00 | 47 | 1039.0 |
| 20260505153137 | 78 | 235 | 5.0 | 14.0 | 0.00 | 0.00 | 0.00 | 50 | 1039.1 |
| 20260505152407 | 78 | 102 | 4.0 | 14.0 | 0.00 | 0.00 | 0.00 | 52 | 1039.1 |
| 20260505151900 | 78 | 135 | 4.0 | 8.0 | 0.00 | 0.00 | 0.00 | 53 | 1039.1 |
| 20260505151354 | 78 | 201 | 4.0 | 10.0 | 0.00 | 0.00 | 0.00 | 52 | 1039.1 |
| 20260505150843 | 77 | 254 | 5.0 | 13.0 | 0.00 | 0.00 | 0.00 | 53 | 1039.1 |
| 20260505150342 | 77 | 181 | 5.0 | 13.0 | 0.00 | 0.00 | 0.00 | 52 | 1039.1 |
| 20260505140222 | 75 | 130 | 3.0 | 7.0 | 0.00 | 0.00 | 0.00 | 54 | 1038.9 |
| 20260505130156 | 72 | 252 | 3.0 | 9.0 | 0.00 | 0.00 | 0.00 | 57 | 1039.3 |
| 20260505124656 | 71 | 11 | 2.0 | 8.0 | 0.00 | 0.00 | 0.00 | 58 | 1039.5 |
| 20260505124155 | 70 | 197 | 2.0 | 9.0 | 0.00 | 0.00 | 0.00 | 59 | 1039.5 |
| 20260505123655 | 69 | 229 | 2.0 | 9.0 | 0.00 | 0.00 | 0.00 | 59 | 1039.5 |
| 20260505123153 | 69 | 247 | 2.0 | 5.0 | 0.00 | 0.00 | 0.00 | 60 | 1039.7 |
| 20260505122657 | 69 | 261 | 3.0 | 8.0 | 0.00 | 0.00 | 0.00 | 61 | 1039.7 |
| 20260505122152 | 68 | 149 | 2.0 | 9.0 | 0.00 | 0.00 | 0.00 | 61 | 1039.7 |
| 20260505121904 | 67 | 212 | 3.0 | 9.0 | 0.00 | 0.00 | 0.00 | 62 | 1039.8 |
| 20260505121138 | 67 | 336 | 2.0 | 8.0 | 0.00 | 0.00 | 0.00 | 63 | 1039.8 |
| 20260505120638 | 66 | 244 | 1.0 | 5.0 | 0.00 | 0.00 | 0.00 | 65 | 1039.8 |
| 20260505120138 | 65 | 125 | 1.0 | 6.0 | 0.00 | 0.00 | 0.00 | 66 | 1039.7 |
| 20260505115638 | 64 | 252 | 1.0 | 6.0 | 0.00 | 0.00 | 0.00 | 66 | 1039.7 |
| 20260505115137 | 64 | 165 | 1.0 | 3.0 | 0.00 | 0.00 | 0.00 | 67 | 1039.7 |
| 20260505114637 | 64 | 156 | 1.0 | 5.0 | 0.00 | 0.00 | 0.00 | 68 | 1039.7 |
| 20260505114140 | 63 | 237 | 0.0 | 5.0 | 0.00 | 0.00 | 0.00 | 68 | 1039.7 |
| 20260505113641 | 63 | 223 | 0.0 | 3.0 | 0.00 | 0.00 | 0.00 | 68 | 1039.7 |
| 20260505113134 | 62 | 188 | 0.0 | 3.0 | 0.00 | 0.00 | 0.00 | 69 | 1039.2 |
| 20260505112624 | 62 | 211 | 1.0 | 3.0 | 0.00 | 0.00 | 0.00 | 69 | 1039.2 |
| 20260505112122 | 62 | 238 | 1.0 | 4.0 | 0.00 | 0.00 | 0.00 | 69 | 1039.2 |
| 20260505111622 | 62 | 196 | 1.0 | 4.0 | 0.00 | 0.00 | 0.00 | 69 | 1039.1 |
| 20260505111345 | 62 | 250 | 0.0 | 2.0 | 0.00 | 0.00 | 0.00 | 69 | 1039.1 |
| 20260505110622 | 61 | 124 | 0.0 | 3.0 | 0.00 | 0.00 | 0.00 | 70 | 1039.1 |
| 20260505110122 | 61 | 106 | 0.0 | 3.0 | 0.00 | 0.00 | 0.00 | 70 | 1038.7 |
| 20260505102048 | 61 | 157 | 1.0 | 3.0 | 0.00 | 0.00 | 0.00 | 69 | 1038.3 |
| 20260505101543 | 61 | 120 | 1.0 | 4.0 | 0.00 | 0.00 | 0.00 | 69 | 1038.3 |
| 20260505101300 | 61 | 215 | 0.0 | 4.0 | 0.00 | 0.00 | 0.00 | 70 | 1038.3 |
| 20260505100525 | 61 | 172 | 0.0 | 4.0 | 0.00 | 0.00 | 0.00 | 70 | 1038.2 |
| 20260505100246 | 62 | 204 | 0.0 | 4.0 | 0.00 | 0.00 | 0.00 | 69 | 1038.2 |
| 20260505095514 | 62 | 168 | 1.0 | 4.0 | 0.00 | 0.00 | 0.00 | 69 | 1038.2 |
| 20260505095011 | 62 | 203 | 1.0 | 4.0 | 0.00 | 0.00 | 0.00 | 69 | 1038.1 |
| 20260505094506 | 62 | 166 | 0.0 | 2.0 | 0.00 | 0.00 | 0.00 | 68 | 1038.1 |
| 20260505094221 | 62 | 180 | 1.0 | 7.0 | 0.00 | 0.00 | 0.00 | 67 | 1038.1 |
| 20260505093454 | 63 | 169 | 1.0 | 7.0 | 0.00 | 0.00 | 0.00 | 67 | 1038.1 |
| 20260505093441 | 63 | 209 | 1.0 | 6.0 | 0.00 | 0.00 | 0.00 | 67 | 1038.1 |
| 20260505092442 | 63 | 192 | 2.0 | 5.0 | 0.00 | 0.00 | 0.00 | 66 | 1038.1 |
| 20260505091936 | 63 | 113 | 2.0 | 9.0 | 0.00 | 0.00 | 0.00 | 66 | 1038.1 |
| 20260505091430 | 63 | 242 | 2.0 | 9.0 | 0.00 | 0.00 | 0.00 | 66 | 1038.1 |
| 20260505090923 | 63 | 144 | 3.0 | 9.0 | 0.00 | 0.00 | 0.00 | 66 | 1038.1 |
| 20260505090412 | 64 | 246 | 3.0 | 9.0 | 0.00 | 0.00 | 0.00 | 66 | 1038.2 |
| 20260505085911 | 64 | 246 | 3.0 | 11.0 | 0.00 | 0.00 | 0.00 | 67 | 1038.2 |
| 20260505085401 | 64 | 239 | 3.0 | 11.0 | 0.00 | 0.00 | 0.00 | 66 | 1038.2 |
| 20260505085347 | 64 | 164 | 3.0 | 9.0 | 0.00 | 0.00 | 0.00 | 67 | 1038.1 |
| 20260505084353 | 64 | 265 | 2.0 | 11.0 | 0.00 | 0.00 | 0.00 | 67 | 1038.1 |
| 20260505083848 | 63 | 242 | 3.0 | 11.0 | 0.00 | 0.00 | 0.00 | 67 | 1038.1 |
| 20260505083342 | 63 | 239 | 3.0 | 9.0 | 0.00 | 0.00 | 0.00 | 68 | 1038.1 |
| 20260505082836 | 63 | 165 | 2.0 | 9.0 | 0.00 | 0.00 | 0.00 | 68 | 1038.1 |
| 20260505082330 | 63 | 121 | 2.0 | 7.0 | 0.00 | 0.00 | 0.00 | 69 | 1038.1 |
| 20260505081818 | 63 | 210 | 1.0 | 7.0 | 0.00 | 0.00 | 0.00 | 69 | 1038.1 |
| 20260505081539 | 63 | 140 | 2.0 | 5.0 | 0.00 | 0.00 | 0.00 | 69 | 1038.1 |
| 20260505080811 | 63 | 234 | 2.0 | 6.0 | 0.00 | 0.00 | 0.00 | 70 | 1038.1 |
| 20260505080306 | 63 | 202 | 2.0 | 7.0 | 0.00 | 0.00 | 0.00 | 70 | 1037.9 |
| 20260505075800 | 62 | 146 | 2.0 | 7.0 | 0.00 | 0.00 | 0.00 | 71 | 1037.9 |
| 20260505075253 | 62 | 209 | 2.0 | 7.0 | 0.00 | 0.00 | 0.00 | 71 | 1037.9 |
| 20260505074747 | 62 | 240 | 2.0 | 7.0 | 0.00 | 0.00 | 0.00 | 71 | 1037.7 |
| 20260505074455 | 62 | 221 | 2.0 | 5.0 | 0.00 | 0.00 | 0.00 | 71 | 1037.7 |
| 20260505073735 | 62 | 214 | 2.0 | 5.0 | 0.00 | 0.00 | 0.00 | 72 | 1037.7 |
| 20260505073229 | 62 | 164 | 2.0 | 7.0 | 0.00 | 0.00 | 0.00 | 71 | 1037.7 |
| 20260505072724 | 62 | 211 | 3.0 | 7.0 | 0.00 | 0.00 | 0.00 | 71 | 1037.7 |
| 20260505072212 | 62 | 147 | 2.0 | 7.0 | 0.00 | 0.00 | 0.00 | 71 | 1037.7 |
| 20260505071711 | 62 | 217 | 1.0 | 6.0 | 0.00 | 0.00 | 0.00 | 71 | 1037.6 |
| 20260505071207 | 62 | 171 | 1.0 | 10.0 | 0.00 | 0.00 | 0.00 | 71 | 1037.6 |
| 20260505070656 | 62 | 205 | 2.0 | 10.0 | 0.00 | 0.00 | 0.00 | 72 | 1037.6 |
| 20260505070153 | 62 | 127 | 2.0 | 6.0 | 0.00 | 0.00 | 0.00 | 72 | 1037.8 |
| 20260505065647 | 62 | 250 | 2.0 | 6.0 | 0.00 | 0.00 | 0.00 | 73 | 1037.8 |
| 20260505065141 | 61 | 259 | 2.0 | 6.0 | 0.00 | 0.00 | 0.00 | 73 | 1037.8 |
| 20260505064635 | 61 | 247 | 2.0 | 8.0 | 0.00 | 0.00 | 0.00 | 74 | 1038.0 |
| 20260505064128 | 61 | 202 | 2.0 | 8.0 | 0.00 | 0.00 | 0.00 | 75 | 1038.0 |
| 20260505063624 | 60 | 148 | 1.0 | 7.0 | 0.00 | 0.00 | 0.00 | 75 | 1038.0 |
| 20260505063113 | 60 | 161 | 1.0 | 6.0 | 0.00 | 0.00 | 0.00 | 77 | 1038.0 |
| 20260505062611 | 59 | 233 | 1.0 | 7.0 | 0.00 | 0.00 | 0.00 | 78 | 1038.0 |
| 20260505062105 | 58 | 252 | 0.0 | 7.0 | 0.00 | 0.00 | 0.00 | 79 | 1038.1 |
| 20260505061559 | 58 | 162 | 0.0 | 3.0 | 0.00 | 0.00 | 0.00 | 80 | 1038.1 |
| 20260505061053 | 58 | 182 | 0.0 | 1.0 | 0.00 | 0.00 | 0.00 | 80 | 1038.1 |
| 20260505060548 | 58 | 156 | 0.0 | 1.0 | 0.00 | 0.00 | 0.00 | 79 | 1038.1 |
| 20260505060041 | 58 | 221 | 0.0 | 1.0 | 0.00 | 0.00 | 0.00 | 79 | 1038.1 |
| 20260505060010 | 59 | 248 | 0.0 | 1.0 | 0.00 | 0.00 | 0.00 | 78 | 1038.1 |
| 20260505055029 | 59 | 227 | 0.0 | 1.0 | 0.00 | 0.00 | 0.00 | 78 | 1038.1 |
| 20260505054523 | 59 | 221 | 0.0 | 2.0 | 0.00 | 0.00 | 0.00 | 78 | 1038.1 |
| 20260505054236 | 59 | 223 | 0.0 | 2.0 | 0.00 | 0.00 | 0.00 | 78 | 1038.1 |
| 20260505053511 | 60 | 209 | 0.0 | 0.0 | 0.00 | 0.00 | 0.00 | 77 | 1038.1 |
| 20260505053005 | 60 | 199 | 0.0 | 2.0 | 0.00 | 0.00 | 0.00 | 77 | 1038.1 |
| 20260505052459 | 60 | 252 | 0.0 | 3.0 | 0.00 | 0.00 | 0.00 | 77 | 1038.1 |
| 20260505051948 | 60 | 226 | 1.0 | 3.0 | 0.00 | 0.00 | 0.00 | 77 | 1038.1 |
| 20260505051447 | 60 | 125 | 1.0 | 3.0 | 0.00 | 0.00 | 0.00 | 77 | 1038.1 |
| 20260505050940 | 60 | 146 | 0.0 | 2.0 | 0.00 | 0.00 | 0.00 | 77 | 1038.1 |
| 20260505050434 | 60 | 217 | 0.0 | 2.0 | 0.00 | 0.00 | 0.00 | 76 | 1038.1 |
| 20260505041424 | 61 | 246 | 1.0 | 3.0 | 0.00 | 0.00 | 0.00 | 77 | 1038.3 |
| 20260505040924 | 61 | 224 | 1.0 | 3.0 | 0.00 | 0.00 | 0.00 | 76 | 1038.3 |
| 20260505040424 | 61 | 244 | 1.0 | 3.0 | 0.00 | 0.00 | 0.00 | 76 | 1038.3 |
| 20260505035924 | 61 | 225 | 1.0 | 3.0 | 0.00 | 0.00 | 0.00 | 76 | 1038.3 |
| 20260505035425 | 61 | 238 | 1.0 | 3.0 | 0.00 | 0.00 | 0.00 | 76 | 1038.3 |
| 20260505034919 | 61 | 141 | 1.0 | 4.0 | 0.00 | 0.00 | 0.00 | 76 | 1038.3 |
| 20260505034408 | 61 | 161 | 1.0 | 4.0 | 0.00 | 0.00 | 0.00 | 76 | 1038.3 |
| 20260505033908 | 61 | 144 | 1.0 | 4.0 | 0.00 | 0.00 | 0.00 | 76 | 1038.3 |
| 20260505033409 | 61 | 167 | 1.0 | 5.0 | 0.00 | 0.00 | 0.00 | 76 | 1038.1 |
| 20260505032909 | 61 | 229 | 1.0 | 5.0 | 0.00 | 0.00 | 0.00 | 75 | 1038.1 |
| 20260505032408 | 61 | 213 | 1.0 | 5.0 | 0.00 | 0.00 | 0.00 | 76 | 1038.1 |
| 20260505031908 | 61 | 227 | 1.0 | 5.0 | 0.00 | 0.00 | 0.00 | 75 | 1038.1 |
| 20260505031409 | 61 | 244 | 0.0 | 4.0 | 0.00 | 0.00 | 0.00 | 75 | 1038.1 |
| 20260505030909 | 62 | 169 | 0.0 | 1.0 | 0.00 | 0.00 | 0.00 | 74 | 1038.1 |
| 20260505030632 | 62 | 162 | 0.0 | 2.0 | 0.00 | 0.00 | 0.00 | 73 | 1038.2 |
| 20260505025903 | 62 | 157 | 0.0 | 3.0 | 0.00 | 0.00 | 0.00 | 72 | 1038.2 |
| 20260505025351 | 63 | 208 | 1.0 | 3.0 | 0.00 | 0.00 | 0.00 | 72 | 1038.2 |
| 20260505024845 | 63 | 213 | 0.0 | 2.0 | 0.00 | 0.00 | 0.00 | 71 | 1038.3 |
| 20260505024345 | 64 | 223 | 1.0 | 4.0 | 0.00 | 0.00 | 0.00 | 70 | 1038.3 |
| 20260505023844 | 64 | 207 | 1.0 | 4.0 | 0.00 | 0.00 | 0.00 | 70 | 1038.3 |
| 20260505023348 | 64 | 274 | 0.0 | 3.0 | 0.00 | 0.00 | 0.00 | 70 | 1038.4 |
| 20260505022848 | 64 | 215 | 1.0 | 3.0 | 0.00 | 0.00 | 0.00 | 69 | 1038.4 |
| 20260505022345 | 64 | 251 | 1.0 | 4.0 | 0.00 | 0.00 | 0.00 | 69 | 1038.4 |
| 20260505021846 | 64 | 277 | 1.0 | 4.0 | 0.00 | 0.00 | 0.00 | 69 | 1038.3 |
| 20260505021343 | 64 | 205 | 1.0 | 4.0 | 0.00 | 0.00 | 0.00 | 68 | 1038.3 |
| 20260505021110 | 64 | 210 | 1.0 | 5.0 | 0.00 | 0.00 | 0.00 | 69 | 1038.3 |
| 20260505020336 | 64 | 254 | 1.0 | 5.0 | 0.00 | 0.00 | 0.00 | 69 | 1038.1 |
| 20260505015830 | 64 | 250 | 1.0 | 3.0 | 0.00 | 0.00 | 0.00 | 69 | 1038.1 |
| 20260505015325 | 64 | 185 | 1.0 | 4.0 | 0.00 | 0.00 | 0.00 | 68 | 1038.1 |
| 20260505014818 | 64 | 151 | 1.0 | 4.0 | 0.00 | 0.00 | 0.00 | 68 | 1038.1 |
| 20260505014312 | 64 | 201 | 1.0 | 3.0 | 0.00 | 0.00 | 0.00 | 67 | 1038.1 |
| 20260505013807 | 65 | 155 | 0.0 | 2.0 | 0.00 | 0.00 | 0.00 | 67 | 1038.1 |
| 20260505013527 | 65 | 226 | 0.0 | 3.0 | 0.00 | 0.00 | 0.00 | 67 | 1038.0 |
| 20260505012755 | 65 | 267 | 1.0 | 3.0 | 0.00 | 0.00 | 0.00 | 66 | 1038.0 |
| 20260505012244 | 65 | 204 | 1.0 | 4.0 | 0.00 | 0.00 | 0.00 | 65 | 1038.0 |
| 20260505011742 | 66 | 183 | 2.0 | 4.0 | 0.00 | 0.00 | 0.00 | 65 | 1037.6 |
| 20260505011236 | 66 | 157 | 1.0 | 4.0 | 0.00 | 0.00 | 0.00 | 64 | 1037.6 |
| 20260505010730 | 66 | 210 | 1.0 | 4.0 | 0.00 | 0.00 | 0.00 | 64 | 1037.6 |
| 20260505010449 | 67 | 198 | 1.0 | 3.0 | 0.00 | 0.00 | 0.00 | 64 | 1037.3 |
| 20260505005713 | 67 | 159 | 1.0 | 4.0 | 0.00 | 0.00 | 0.00 | 64 | 1037.3 |
| 20260505005212 | 67 | 219 | 2.0 | 6.0 | 0.00 | 0.00 | 0.00 | 63 | 1037.3 |
| 20260505004707 | 67 | 260 | 2.0 | 6.0 | 0.00 | 0.00 | 0.00 | 63 | 1037.2 |
| 20260505004200 | 67 | 248 | 1.0 | 5.0 | 0.00 | 0.00 | 0.00 | 63 | 1037.2 |
| 20260505003654 | 67 | 254 | 1.0 | 6.0 | 0.00 | 0.00 | 0.00 | 63 | 1037.2 |
| 20260505003150 | 67 | 225 | 1.0 | 6.0 | 0.00 | 0.00 | 0.00 | 62 | 1037.0 |
| 20260505002642 | 67 | 244 | 1.0 | 7.0 | 0.00 | 0.00 | 0.00 | 62 | 1037.0 |
| 20260505002133 | 68 | 282 | 1.0 | 7.0 | 0.00 | 0.00 | 0.00 | 61 | 1037.0 |
| 20260505001630 | 68 | 184 | 1.0 | 6.0 | 0.00 | 0.00 | 0.00 | 60 | 1037.0 |
| 20260505001125 | 68 | 237 | 2.0 | 7.0 | 0.00 | 0.00 | 0.00 | 60 | 1037.0 |
| 20260505000841 | 69 | 229 | 2.0 | 7.0 | 0.00 | 0.00 | 0.00 | 60 | 1036.9 |
| 20260505000113 | 69 | 228 | 2.0 | 6.0 | 0.00 | 0.00 | 0.00 | 59 | 1036.9 |
| 20260504235606 | 69 | 265 | 2.0 | 5.0 | 0.00 | 0.00 | 0.00 | 59 | 1036.9 |
| 20260504235539 | 69 | 189 | 3.0 | 11.0 | 0.00 | 0.00 | 0.00 | 58 | 1036.9 |
| 20260504234549 | 70 | 234 | 4.0 | 12.0 | 0.00 | 0.00 | 0.00 | 58 | 1036.9 |
| 20260504234048 | 70 | 201 | 4.0 | 12.0 | 0.00 | 0.00 | 0.00 | 57 | 1036.9 |
| 20260504233542 | 71 | 235 | 4.0 | 11.0 | 0.00 | 0.00 | 0.00 | 55 | 1036.7 |
| 20260504233037 | 72 | 255 | 4.0 | 14.0 | 0.00 | 0.00 | 0.00 | 52 | 1036.7 |
| 20260504232530 | 72 | 192 | 5.0 | 14.0 | 0.00 | 0.00 | 0.00 | 51 | 1036.7 |
| 20260504232024 | 73 | 198 | 3.0 | 11.0 | 0.00 | 0.00 | 0.00 | 50 | 1036.6 |
| 20260504231518 | 73 | 238 | 2.0 | 9.0 | 0.00 | 0.00 | 0.00 | 51 | 1036.6 |
| 20260504231235 | 73 | 159 | 2.0 | 7.0 | 0.00 | 0.00 | 0.00 | 52 | 1036.6 |